Change the Weather History Date:

Tuesday, August 12, 2014

  Actual Average Record
Temperature  
Mean Temperature 70 °F 80 °F  
Max Temperature 82 °F 92 °F 104 °F (1999)
Min Temperature 58 °F 69 °F 48 °F (2004)
Degree Days  
Heating Degree Days 0 0  
Month to date heating degree days 0 0  
Since 1 June heating degree days 3 5  
Since 1 July heating degree days 1 0  
Cooling Degree Days 5 15  
Month to date cooling degree days 149 191  
Year to date cooling degree days 995 1162  
Since 1 June cooling degree days 782 982  
Growing Degree Days 19 (Base 50)    
Moisture  
Dew Point 55 °F    
Average Humidity 63    
Maximum Humidity 93    
Minimum Humidity 33    
Precipitation  
Precipitation 0.00 in 0.11 in 1.19 in (1961)
Month to date precipitation 1.48 1.22  
Year to date precipitation 15.40 28.84  
Sea Level Pressure  
Sea Level Pressure 30.07 in    
Wind  
Wind Speed 7 mph (North)    
Max Wind Speed 17 mph    
Max Gust Speed 23 mph    
Visibility 10 miles    
Events      
T = Trace of Precipitation, MM = Missing Value Source: NWS Daily Summary

Daily Weather History Graph

Daily Weather History Graph

Search for Another Location

Airport or City:

Trip Planner

Search our weather history database for the weather conditions in past years. The results will help you decide how hot, cold, wet, or windy it might be!

Date:

Astronomy

Aug. 12, 2014 Rise Set
Actual Time 6:32 AM CDT 8:13 PM CDT
Civil Twilight 6:04 AM CDT 8:41 PM CDT
Nautical Twilight 5:30 AM CDT 9:14 PM CDT
Astronomical Twilight 4:54 AM CDT 9:50 PM CDT
Moon 9:26 PM CDT (8/12) 8:46 AM CDT (8/12)
Length of Visible Light 14h 37m
Length of Day
13h 41m
Waning Gibbous, 94% of the Moon is Illuminated
Aug 12
Waning Gibbous
Aug 17
Last Quarter
Aug 25
New
Sep 2
First Quarter
Sep 8
Full

Hourly Weather History & Observations

Time (CDT) Temp. Heat Index Dew Point Humidity Pressure Visibility Wind Dir Wind Speed Gust Speed Precip Events Conditions
12:53 AM 63.0 °F - 57.9 °F 84% 30.06 in 10.0 mi NNW 3.5 mph - N/A   Clear
1:53 AM 62.1 °F - 57.9 °F 86% 30.07 in 10.0 mi North 5.8 mph - N/A   Clear
2:53 AM 62.1 °F - 57.9 °F 86% 30.06 in 10.0 mi NNW 4.6 mph - N/A   Clear
3:53 AM 60.8 °F - 57.2 °F 88% 30.09 in 10.0 mi NW 4.6 mph - N/A   Clear
4:53 AM 61.0 °F - 57.0 °F 87% 30.07 in 10.0 mi Calm Calm - N/A   Clear
5:53 AM 59.0 °F - 57.0 °F 93% 30.08 in 10.0 mi Variable 3.5 mph - N/A   Clear
6:53 AM 57.9 °F - 55.9 °F 93% 30.09 in 10.0 mi Variable 4.6 mph - N/A   Clear
7:53 AM 62.1 °F - 57.9 °F 86% 30.09 in 10.0 mi North 5.8 mph - N/A   Clear
8:53 AM 66.9 °F - 59.0 °F 76% 30.10 in 10.0 mi North 6.9 mph - N/A   Clear
9:53 AM 72.0 °F - 57.9 °F 61% 30.11 in 10.0 mi North 5.8 mph - N/A   Clear
10:53 AM 75.0 °F - 55.0 °F 50% 30.12 in 10.0 mi North 13.8 mph - N/A   Clear
12:53 PM 79.0 °F - 52.0 °F 39% 30.09 in 10.0 mi North 10.4 mph - N/A   Clear
1:53 PM 79.0 °F - 52.0 °F 39% 30.08 in 10.0 mi North 6.9 mph 20.7 mph N/A   Clear
2:53 PM 81.0 °F 80.4 °F 53.1 °F 38% 30.07 in 10.0 mi North 10.4 mph - N/A   Clear
3:53 PM 81.0 °F - 52.0 °F 36% 30.06 in 10.0 mi North 12.7 mph - N/A   Clear
4:53 PM 81.0 °F - 52.0 °F 36% 30.05 in 10.0 mi North 13.8 mph - N/A   Clear
5:53 PM 80.1 °F - 48.0 °F 32% 30.04 in 10.0 mi North 9.2 mph - N/A   Clear
6:53 PM 78.1 °F - 50.0 °F 37% 30.04 in 10.0 mi North 9.2 mph - N/A   Clear
7:53 PM 73.9 °F - 54.0 °F 50% 30.04 in 10.0 mi NNE 8.1 mph - N/A   Clear
8:53 PM 69.1 °F - 53.1 °F 57% 30.05 in 10.0 mi NNE 5.8 mph - N/A   Clear
9:53 PM 66.9 °F - 54.0 °F 63% 30.07 in 10.0 mi NNE 3.5 mph - N/A   Clear
10:53 PM 64.0 °F - 55.9 °F 75% 30.08 in 10.0 mi Calm Calm - N/A   Clear
11:53 PM 60.1 °F - 55.9 °F 86% 30.08 in 10.0 mi NE 3.5 mph - N/A   Clear